owner,sensor,date,latitude,longitude,vertical_datum,sea_water_practical_salinity,qcFlag 
NERRS,ioos:station:NOAA.NERRS:gndbhwq:1,2015-12-01T21:00:00Z,30.4178,-88.4054,1.29,21.4,1111122 
NERRS,ioos:station:NOAA.NERRS:gndbhwq:1,2015-12-01T22:00:00Z,30.4178,-88.4054,1.32,21.4,1111122 
NERRS,ioos:station:NOAA.NERRS:gndbhwq:1,2015-12-01T23:00:00Z,30.4178,-88.4054,1.38,21.4,1111122 
NERRS,ioos:station:NOAA.NERRS:gndbhwq:1,2015-12-02T00:00:00Z,30.4178,-88.4054,1.42,21.5,1111122 
NERRS,ioos:station:NOAA.NERRS:gndbhwq:1,2015-12-02T01:00:00Z,30.4178,-88.4054,1.47,21.6,1111122 
NERRS,ioos:station:NOAA.NERRS:gndbhwq:1,2015-12-02T02:00:00Z,30.4178,-88.4054,1.5,21.6,1111122 
NERRS,ioos:station:NOAA.NERRS:gndbhwq:1,2015-12-02T03:00:00Z,30.4178,-88.4054,1.52,21.6,1111122 
NERRS,ioos:station:NOAA.NERRS:gndbhwq:1,2015-12-02T04:00:00Z,30.4178,-88.4054,1.54,21.6,1111122 
NERRS,ioos:station:NOAA.NERRS:gndbhwq:1,2015-12-02T05:00:00Z,30.4178,-88.4054,1.56,21.5,1111122 
NERRS,ioos:station:NOAA.NERRS:gndbhwq:1,2015-12-02T06:00:00Z,30.4178,-88.4054,1.58,21.5,1111122 
NERRS,ioos:station:NOAA.NERRS:gndbhwq:1,2015-12-02T07:00:00Z,30.4178,-88.4054,1.58,21.4,1111122 
NERRS,ioos:station:NOAA.NERRS:gndbhwq:1,2015-12-02T08:00:00Z,30.4178,-88.4054,1.54,21.4,1111122 
NERRS,ioos:station:NOAA.NERRS:gndbhwq:1,2015-12-02T09:00:00Z,30.4178,-88.4054,1.47,21.2,1111122 
NERRS,ioos:station:NOAA.NERRS:gndbhwq:1,2015-12-02T10:00:00Z,30.4178,-88.4054,1.45,21.3,1111122 
NERRS,ioos:station:NOAA.NERRS:gndbhwq:1,2015-12-02T11:00:00Z,30.4178,-88.4054,1.42,21.3,1111122 
NERRS,ioos:station:NOAA.NERRS:gndbhwq:1,2015-12-02T12:00:00Z,30.4178,-88.4054,1.33,20.9,1111122 
NERRS,ioos:station:NOAA.NERRS:gndbhwq:1,2015-12-02T13:00:00Z,30.4178,-88.4054,1.28,20.8,1111122 
NERRS,ioos:station:NOAA.NERRS:gndbhwq:1,2015-12-02T14:00:00Z,30.4178,-88.4054,1.15,20.5,1111122 
NERRS,ioos:station:NOAA.NERRS:gndbhwq:1,2015-12-02T15:00:00Z,30.4178,-88.4054,1.14,20.6,1111122 
NERRS,ioos:station:NOAA.NERRS:gndbhwq:1,2015-12-02T16:00:00Z,30.4178,-88.4054,1.14,20.8,1111122 
NERRS,ioos:station:NOAA.NERRS:gndbhwq:1,2015-12-02T17:00:00Z,30.4178,-88.4054,1.12,20.7,1111122 
NERRS,ioos:station:NOAA.NERRS:gndbhwq:1,2015-12-02T18:00:00Z,30.4178,-88.4054,1.21,20.9,1111122 
NERRS,ioos:station:NOAA.NERRS:gndbhwq:1,2015-12-02T19:00:00Z,30.4178,-88.4054,1.22,21.0,1111122 
NERRS,ioos:station:NOAA.NERRS:gndbhwq:1,2015-12-02T20:00:00Z,30.4178,-88.4054,1.35,21.2,1111122 
NERRS,ioos:station:NOAA.NERRS:gndbhwq:1,2015-12-02T21:00:00Z,30.4178,-88.4054,1.21,20.9,1111122 
NERRS,ioos:station:NOAA.NERRS:gndbhwq:1,2015-12-02T22:00:00Z,30.4178,-88.4054,1.26,20.9,1111122 
NERRS,ioos:station:NOAA.NERRS:gndbhwq:1,2015-12-02T23:00:00Z,30.4178,-88.4054,1.27,20.8,1111122 
NERRS,ioos:station:NOAA.NERRS:gndbhwq:1,2015-12-03T00:00:00Z,30.4178,-88.4054,1.3,20.8,1111122 
NERRS,ioos:station:NOAA.NERRS:gndbhwq:1,2015-12-03T01:00:00Z,30.4178,-88.4054,1.42,20.9,1111122 
NERRS,ioos:station:NOAA.NERRS:gndbhwq:1,2015-12-03T02:00:00Z,30.4178,-88.4054,1.4,20.8,1111122 
NERRS,ioos:station:NOAA.NERRS:gndbhwq:1,2015-12-03T03:00:00Z,30.4178,-88.4054,1.34,20.7,1111122 
NERRS,ioos:station:NOAA.NERRS:gndbhwq:1,2015-12-03T04:00:00Z,30.4178,-88.4054,1.34,20.6,1111122 
NERRS,ioos:station:NOAA.NERRS:gndbhwq:1,2015-12-03T05:00:00Z,30.4178,-88.4054,1.43,20.6,1111122 
NERRS,ioos:station:NOAA.NERRS:gndbhwq:1,2015-12-03T06:00:00Z,30.4178,-88.4054,1.39,20.6,1111122 
NERRS,ioos:station:NOAA.NERRS:gndbhwq:1,2015-12-03T07:00:00Z,30.4178,-88.4054,1.34,20.5,1111122 
NERRS,ioos:station:NOAA.NERRS:gndbhwq:1,2015-12-03T08:00:00Z,30.4178,-88.4054,1.35,20.4,1111122 
NERRS,ioos:station:NOAA.NERRS:gndbhwq:1,2015-12-03T09:00:00Z,30.4178,-88.4054,1.33,20.4,1111122 
NERRS,ioos:station:NOAA.NERRS:gndbhwq:1,2015-12-03T10:00:00Z,30.4178,-88.4054,1.27,20.4,1111122 
NERRS,ioos:station:NOAA.NERRS:gndbhwq:1,2015-12-03T11:00:00Z,30.4178,-88.4054,1.28,20.4,1111122 
NERRS,ioos:station:NOAA.NERRS:gndbhwq:1,2015-12-03T12:00:00Z,30.4178,-88.4054,1.21,20.2,1111122 
NERRS,ioos:station:NOAA.NERRS:gndbhwq:1,2015-12-03T13:00:00Z,30.4178,-88.4054,1.28,20.5,1111122 
NERRS,ioos:station:NOAA.NERRS:gndbhwq:1,2015-12-03T14:00:00Z,30.4178,-88.4054,1.21,20.3,1111122 
NERRS,ioos:station:NOAA.NERRS:gndbhwq:1,2015-12-03T15:00:00Z,30.4178,-88.4054,1.24,20.1,1111122 
NERRS,ioos:station:NOAA.NERRS:gndbhwq:1,2015-12-03T16:00:00Z,30.4178,-88.4054,1.24,20.1,1111122 
NERRS,ioos:station:NOAA.NERRS:gndbhwq:1,2015-12-03T17:00:00Z,30.4178,-88.4054,1.22,20.1,1111122 
NERRS,ioos:station:NOAA.NERRS:gndbhwq:1,2015-12-03T18:00:00Z,30.4178,-88.4054,1.15,20.0,1111122 
NERRS,ioos:station:NOAA.NERRS:gndbhwq:1,2015-12-03T19:00:00Z,30.4178,-88.4054,1.21,20.1,1111122 
NERRS,ioos:station:NOAA.NERRS:gndbhwq:1,2015-12-03T20:00:00Z,30.4178,-88.4054,1.23,20.1,1111122 
NERRS,ioos:station:NOAA.NERRS:gndbhwq:1,2015-12-03T21:00:00Z,30.4178,-88.4054,1.31,20.1,1111122 
NERRS,ioos:station:NOAA.NERRS:gndbhwq:1,2015-12-03T22:00:00Z,30.4178,-88.4054,1.3,20.0,1111122 
NERRS,ioos:station:NOAA.NERRS:gndbhwq:1,2015-12-03T23:00:00Z,30.4178,-88.4054,1.3,20.2,1111122 
NERRS,ioos:station:NOAA.NERRS:gndbhwq:1,2015-12-04T00:00:00Z,30.4178,-88.4054,1.25,20.1,1111122 
NERRS,ioos:station:NOAA.NERRS:gndbhwq:1,2015-12-04T01:00:00Z,30.4178,-88.4054,1.25,19.9,1111122 
NERRS,ioos:station:NOAA.NERRS:gndbhwq:1,2015-12-04T02:00:00Z,30.4178,-88.4054,1.29,19.9,1111122 
NERRS,ioos:station:NOAA.NERRS:gndbhwq:1,2015-12-04T03:00:00Z,30.4178,-88.4054,1.24,19.8,1111122 
NERRS,ioos:station:NOAA.NERRS:gndbhwq:1,2015-12-04T04:00:00Z,30.4178,-88.4054,1.26,19.8,1111122 
NERRS,ioos:station:NOAA.NERRS:gndbhwq:1,2015-12-04T05:00:00Z,30.4178,-88.4054,1.25,19.8,1111122 
NERRS,ioos:station:NOAA.NERRS:gndbhwq:1,2015-12-04T06:00:00Z,30.4178,-88.4054,1.26,20.0,1111122 
NERRS,ioos:station:NOAA.NERRS:gndbhwq:1,2015-12-04T07:00:00Z,30.4178,-88.4054,1.32,20.1,1111122 
NERRS,ioos:station:NOAA.NERRS:gndbhwq:1,2015-12-04T08:00:00Z,30.4178,-88.4054,1.28,20.1,1111122 
NERRS,ioos:station:NOAA.NERRS:gndbhwq:1,2015-12-04T09:00:00Z,30.4178,-88.4054,1.35,20.3,1111122 
NERRS,ioos:station:NOAA.NERRS:gndbhwq:1,2015-12-04T10:00:00Z,30.4178,-88.4054,1.22,20.4,1111122 
NERRS,ioos:station:NOAA.NERRS:gndbhwq:1,2015-12-04T11:00:00Z,30.4178,-88.4054,1.26,20.4,1111122 
NERRS,ioos:station:NOAA.NERRS:gndbhwq:1,2015-12-04T12:00:00Z,30.4178,-88.4054,1.22,21.0,1111122 
NERRS,ioos:station:NOAA.NERRS:gndbhwq:1,2015-12-04T13:00:00Z,30.4178,-88.4054,1.2,21.0,1111122 
NERRS,ioos:station:NOAA.NERRS:gndbhwq:1,2015-12-04T14:00:00Z,30.4178,-88.4054,1.22,21.5,1111122 
NERRS,ioos:station:NOAA.NERRS:gndbhwq:1,2015-12-04T15:00:00Z,30.4178,-88.4054,1.2,21.6,1111122 
NERRS,ioos:station:NOAA.NERRS:gndbhwq:1,2015-12-04T16:00:00Z,30.4178,-88.4054,1.21,21.5,1111122 
NERRS,ioos:station:NOAA.NERRS:gndbhwq:1,2015-12-04T17:00:00Z,30.4178,-88.4054,1.26,21.7,1111122 
NERRS,ioos:station:NOAA.NERRS:gndbhwq:1,2015-12-04T18:00:00Z,30.4178,-88.4054,1.28,22.1,1111122 
NERRS,ioos:station:NOAA.NERRS:gndbhwq:1,2015-12-05T00:00:00Z,30.4178,-88.4054,1.36,22.7,1111122 
NERRS,ioos:station:NOAA.NERRS:gndbhwq:1,2015-12-05T06:00:00Z,30.4178,-88.4054,1.35,24.2,1111122 
NERRS,ioos:station:NOAA.NERRS:gndbhwq:1,2015-12-05T12:00:00Z,30.4178,-88.4054,1.24,25.1,1111122 
NERRS,ioos:station:NOAA.NERRS:gndbhwq:1,2015-12-05T18:00:00Z,30.4178,-88.4054,1.24,25.2,1111122 
NERRS,ioos:station:NOAA.NERRS:gndbhwq:1,2015-12-06T00:00:00Z,30.4178,-88.4054,1.4,25.6,1111122 
NERRS,ioos:station:NOAA.NERRS:gndbhwq:1,2015-12-06T06:00:00Z,30.4178,-88.4054,1.35,25.9,1111122 
NERRS,ioos:station:NOAA.NERRS:gndbhwq:1,2015-12-06T11:00:00Z,30.4178,-88.4054,1.27,25.9,1111122 
NERRS,ioos:station:NOAA.NERRS:gndbhwq:1,2015-12-06T16:00:00Z,30.4178,-88.4054,1.29,25.9,1111122 
NERRS,ioos:station:NOAA.NERRS:gndbhwq:1,2015-12-06T17:00:00Z,30.4178,-88.4054,1.31,25.9,1111122 
NERRS,ioos:station:NOAA.NERRS:gndbhwq:1,2015-12-06T18:00:00Z,30.4178,-88.4054,1.33,25.9,1111122 
NERRS,ioos:station:NOAA.NERRS:gndbhwq:1,2015-12-06T19:00:00Z,30.4178,-88.4054,1.33,25.8,1111122 
NERRS,ioos:station:NOAA.NERRS:gndbhwq:1,2015-12-06T20:00:00Z,30.4178,-88.4054,1.31,25.6,1111122 
NERRS,ioos:station:NOAA.NERRS:gndbhwq:1,2015-12-06T21:00:00Z,30.4178,-88.4054,1.36,25.6,1111122 
NERRS,ioos:station:NOAA.NERRS:gndbhwq:1,2015-12-06T22:00:00Z,30.4178,-88.4054,1.36,25.6,1111122 
NERRS,ioos:station:NOAA.NERRS:gndbhwq:1,2015-12-06T23:00:00Z,30.4178,-88.4054,1.46,25.7,1111122 
NERRS,ioos:station:NOAA.NERRS:gndbhwq:1,2015-12-07T00:00:00Z,30.4178,-88.4054,1.38,25.5,1111122 
NERRS,ioos:station:NOAA.NERRS:gndbhwq:1,2015-12-07T01:00:00Z,30.4178,-88.4054,1.45,25.7,1111122 
NERRS,ioos:station:NOAA.NERRS:gndbhwq:1,2015-12-07T02:00:00Z,30.4178,-88.4054,1.44,25.8,1111122 
NERRS,ioos:station:NOAA.NERRS:gndbhwq:1,2015-12-07T03:00:00Z,30.4178,-88.4054,1.39,25.5,1111122 
NERRS,ioos:station:NOAA.NERRS:gndbhwq:1,2015-12-07T05:00:00Z,30.4178,-88.4054,1.31,25.7,1111122 
NERRS,ioos:station:NOAA.NERRS:gndbhwq:1,2015-12-07T06:00:00Z,30.4178,-88.4054,1.27,25.4,1111122 
NERRS,ioos:station:NOAA.NERRS:gndbhwq:1,2015-12-07T07:00:00Z,30.4178,-88.4054,1.19,25.3,1111122 
NERRS,ioos:station:NOAA.NERRS:gndbhwq:1,2015-12-07T08:00:00Z,30.4178,-88.4054,1.13,25.3,1111122 
NERRS,ioos:station:NOAA.NERRS:gndbhwq:1,2015-12-07T09:00:00Z,30.4178,-88.4054,1.09,25.3,1111122 
NERRS,ioos:station:NOAA.NERRS:gndbhwq:1,2015-12-07T10:00:00Z,30.4178,-88.4054,1.08,25.3,1111122 
NERRS,ioos:station:NOAA.NERRS:gndbhwq:1,2015-12-07T11:00:00Z,30.4178,-88.4054,1.09,25.4,1111122 
NERRS,ioos:station:NOAA.NERRS:gndbhwq:1,2015-12-07T12:00:00Z,30.4178,-88.4054,1.11,25.4,1111122 
NERRS,ioos:station:NOAA.NERRS:gndbhwq:1,2015-12-07T13:00:00Z,30.4178,-88.4054,1.12,25.4,1111122 
NERRS,ioos:station:NOAA.NERRS:gndbhwq:1,2015-12-07T14:00:00Z,30.4178,-88.4054,1.14,25.6,1111122 
NERRS,ioos:station:NOAA.NERRS:gndbhwq:1,2015-12-07T15:00:00Z,30.4178,-88.4054,1.23,25.5,1111122 
NERRS,ioos:station:NOAA.NERRS:gndbhwq:1,2015-12-07T16:00:00Z,30.4178,-88.4054,1.21,25.4,1111122 
NERRS,ioos:station:NOAA.NERRS:gndbhwq:1,2015-12-07T17:00:00Z,30.4178,-88.4054,1.28,25.5,1111122 
NERRS,ioos:station:NOAA.NERRS:gndbhwq:1,2015-12-07T18:00:00Z,30.4178,-88.4054,1.31,25.5,1111122 
NERRS,ioos:station:NOAA.NERRS:gndbhwq:1,2015-12-07T19:00:00Z,30.4178,-88.4054,1.28,25.5,1111122 
NERRS,ioos:station:NOAA.NERRS:gndbhwq:1,2015-12-07T21:00:00Z,30.4178,-88.4054,1.35,25.5,1111122 
NERRS,ioos:station:NOAA.NERRS:gndbhwq:1,2015-12-07T22:00:00Z,30.4178,-88.4054,1.42,25.5,1111122 
NERRS,ioos:station:NOAA.NERRS:gndbhwq:1,2015-12-07T23:00:00Z,30.4178,-88.4054,1.47,25.5,1111122 
NERRS,ioos:station:NOAA.NERRS:gndbhwq:1,2015-12-08T00:00:00Z,30.4178,-88.4054,1.47,25.5,1111122 
NERRS,ioos:station:NOAA.NERRS:gndbhwq:1,2015-12-08T01:00:00Z,30.4178,-88.4054,1.45,25.5,1111122 
NERRS,ioos:station:NOAA.NERRS:gndbhwq:1,2015-12-08T02:00:00Z,30.4178,-88.4054,1.46,25.6,1111122 
NERRS,ioos:station:NOAA.NERRS:gndbhwq:1,2015-12-08T03:00:00Z,30.4178,-88.4054,1.44,25.4,1111122 
NERRS,ioos:station:NOAA.NERRS:gndbhwq:1,2015-12-08T04:00:00Z,30.4178,-88.4054,1.41,25.3,1111122 
NERRS,ioos:station:NOAA.NERRS:gndbhwq:1,2015-12-08T05:00:00Z,30.4178,-88.4054,1.35,25.3,1111122 
NERRS,ioos:station:NOAA.NERRS:gndbhwq:1,2015-12-08T06:00:00Z,30.4178,-88.4054,1.28,25.3,1111122 
NERRS,ioos:station:NOAA.NERRS:gndbhwq:1,2015-12-08T07:00:00Z,30.4178,-88.4054,1.22,25.3,1111122 
NERRS,ioos:station:NOAA.NERRS:gndbhwq:1,2015-12-08T08:00:00Z,30.4178,-88.4054,1.13,25.1,1111122 
NERRS,ioos:station:NOAA.NERRS:gndbhwq:1,2015-12-08T09:00:00Z,30.4178,-88.4054,1.07,25.1,1111122 
NERRS,ioos:station:NOAA.NERRS:gndbhwq:1,2015-12-08T10:00:00Z,30.4178,-88.4054,1.03,25.1,1111122 
NERRS,ioos:station:NOAA.NERRS:gndbhwq:1,2015-12-08T11:00:00Z,30.4178,-88.4054,0.99,25.0,1111122 
NERRS,ioos:station:NOAA.NERRS:gndbhwq:1,2015-12-08T12:00:00Z,30.4178,-88.4054,1.04,25.2,1111122 
NERRS,ioos:station:NOAA.NERRS:gndbhwq:1,2015-12-08T13:00:00Z,30.4178,-88.4054,1.01,25.1,1111122 
NERRS,ioos:station:NOAA.NERRS:gndbhwq:1,2015-12-08T14:00:00Z,30.4178,-88.4054,1.08,25.2,1111122 
NERRS,ioos:station:NOAA.NERRS:gndbhwq:1,2015-12-08T15:00:00Z,30.4178,-88.4054,1.13,25.3,1111122 
NERRS,ioos:station:NOAA.NERRS:gndbhwq:1,2015-12-08T16:00:00Z,30.4178,-88.4054,1.16,25.2,1111122 
NERRS,ioos:station:NOAA.NERRS:gndbhwq:1,2015-12-08T17:00:00Z,30.4178,-88.4054,1.2,25.1,1111122 
NERRS,ioos:station:NOAA.NERRS:gndbhwq:1,2015-12-08T18:00:00Z,30.4178,-88.4054,1.23,25.2,1111122 
NERRS,ioos:station:NOAA.NERRS:gndbhwq:1,2015-12-08T19:00:00Z,30.4178,-88.4054,1.23,25.2,1111122 
NERRS,ioos:station:NOAA.NERRS:gndbhwq:1,2015-12-08T20:00:00Z,30.4178,-88.4054,1.29,25.2,1111122 
NERRS,ioos:station:NOAA.NERRS:gndbhwq:1,2015-12-08T21:00:00Z,30.4178,-88.4054,1.32,25.0,1111122 
NERRS,ioos:station:NOAA.NERRS:gndbhwq:1,2015-12-08T22:00:00Z,30.4178,-88.4054,1.36,25.0,1111122 
NERRS,ioos:station:NOAA.NERRS:gndbhwq:1,2015-12-08T23:00:00Z,30.4178,-88.4054,1.41,25.0,1111122 
NERRS,ioos:station:NOAA.NERRS:gndbhwq:1,2015-12-09T00:00:00Z,30.4178,-88.4054,1.44,25.0,1111122 
NERRS,ioos:station:NOAA.NERRS:gndbhwq:1,2015-12-09T01:00:00Z,30.4178,-88.4054,1.48,24.9,1111122 
NERRS,ioos:station:NOAA.NERRS:gndbhwq:1,2015-12-09T02:00:00Z,30.4178,-88.4054,1.5,24.8,1111122 
NERRS,ioos:station:NOAA.NERRS:gndbhwq:1,2015-12-09T03:00:00Z,30.4178,-88.4054,1.49,24.8,1111122 
NERRS,ioos:station:NOAA.NERRS:gndbhwq:1,2015-12-09T04:00:00Z,30.4178,-88.4054,1.45,24.8,1111122 
NERRS,ioos:station:NOAA.NERRS:gndbhwq:1,2015-12-09T05:00:00Z,30.4178,-88.4054,1.42,24.7,1111122 
NERRS,ioos:station:NOAA.NERRS:gndbhwq:1,2015-12-09T06:00:00Z,30.4178,-88.4054,1.36,24.7,1111122 
NERRS,ioos:station:NOAA.NERRS:gndbhwq:1,2015-12-09T07:00:00Z,30.4178,-88.4054,1.27,24.7,1111122 
NERRS,ioos:station:NOAA.NERRS:gndbhwq:1,2015-12-09T08:00:00Z,30.4178,-88.4054,1.19,24.7,1111122 
NERRS,ioos:station:NOAA.NERRS:gndbhwq:1,2015-12-09T09:00:00Z,30.4178,-88.4054,1.11,24.6,1111122 
NERRS,ioos:station:NOAA.NERRS:gndbhwq:1,2015-12-09T10:00:00Z,30.4178,-88.4054,1.06,24.6,1111122 
NERRS,ioos:station:NOAA.NERRS:gndbhwq:1,2015-12-09T11:00:00Z,30.4178,-88.4054,1.03,24.6,1111122 
NERRS,ioos:station:NOAA.NERRS:gndbhwq:1,2015-12-09T12:00:00Z,30.4178,-88.4054,1.05,24.8,1111122 
NERRS,ioos:station:NOAA.NERRS:gndbhwq:1,2015-12-09T13:00:00Z,30.4178,-88.4054,1.04,24.8,1111122 
NERRS,ioos:station:NOAA.NERRS:gndbhwq:1,2015-12-09T14:00:00Z,30.4178,-88.4054,1.1,24.8,1111122 
NERRS,ioos:station:NOAA.NERRS:gndbhwq:1,2015-12-09T15:00:00Z,30.4178,-88.4054,1.12,24.9,1111122 
NERRS,ioos:station:NOAA.NERRS:gndbhwq:1,2015-12-09T16:00:00Z,30.4178,-88.4054,1.17,25.0,1111122 
NERRS,ioos:station:NOAA.NERRS:gndbhwq:1,2015-12-09T18:00:00Z,30.4178,-88.4054,1.26,24.8,1111122 
NERRS,ioos:station:NOAA.NERRS:gndbhwq:1,2015-12-09T19:00:00Z,30.4178,-88.4054,1.26,24.8,1111122 
NERRS,ioos:station:NOAA.NERRS:gndbhwq:1,2015-12-09T20:00:00Z,30.4178,-88.4054,1.32,24.7,1111122 
NERRS,ioos:station:NOAA.NERRS:gndbhwq:1,2015-12-09T21:00:00Z,30.4178,-88.4054,1.34,24.7,1111122 
NERRS,ioos:station:NOAA.NERRS:gndbhwq:1,2015-12-09T22:00:00Z,30.4178,-88.4054,1.4,24.6,1111122 
NERRS,ioos:station:NOAA.NERRS:gndbhwq:1,2015-12-09T23:00:00Z,30.4178,-88.4054,1.41,24.5,1111122 
NERRS,ioos:station:NOAA.NERRS:gndbhwq:1,2015-12-10T00:00:00Z,30.4178,-88.4054,1.5,24.5,1111122 
NERRS,ioos:station:NOAA.NERRS:gndbhwq:1,2015-12-10T01:00:00Z,30.4178,-88.4054,1.54,24.5,1111122 
NERRS,ioos:station:NOAA.NERRS:gndbhwq:1,2015-12-10T02:00:00Z,30.4178,-88.4054,1.54,24.5,1111122 
NERRS,ioos:station:NOAA.NERRS:gndbhwq:1,2015-12-10T03:00:00Z,30.4178,-88.4054,1.51,24.5,1111122 
NERRS,ioos:station:NOAA.NERRS:gndbhwq:1,2015-12-10T04:00:00Z,30.4178,-88.4054,1.5,24.5,1111122 
NERRS,ioos:station:NOAA.NERRS:gndbhwq:1,2015-12-10T05:00:00Z,30.4178,-88.4054,1.45,24.6,1111122 
NERRS,ioos:station:NOAA.NERRS:gndbhwq:1,2015-12-10T06:00:00Z,30.4178,-88.4054,1.37,24.5,1111122 
NERRS,ioos:station:NOAA.NERRS:gndbhwq:1,2015-12-10T07:00:00Z,30.4178,-88.4054,1.27,24.5,1111122 
NERRS,ioos:station:NOAA.NERRS:gndbhwq:1,2015-12-10T08:00:00Z,30.4178,-88.4054,1.21,24.6,1111122 
NERRS,ioos:station:NOAA.NERRS:gndbhwq:1,2015-12-10T09:00:00Z,30.4178,-88.4054,1.11,24.6,1111122 
NERRS,ioos:station:NOAA.NERRS:gndbhwq:1,2015-12-10T10:00:00Z,30.4178,-88.4054,1.04,24.5,1111122 
NERRS,ioos:station:NOAA.NERRS:gndbhwq:1,2015-12-10T11:00:00Z,30.4178,-88.4054,0.99,24.5,1111122 
NERRS,ioos:station:NOAA.NERRS:gndbhwq:1,2015-12-10T12:00:00Z,30.4178,-88.4054,0.95,24.6,1111122 
NERRS,ioos:station:NOAA.NERRS:gndbhwq:1,2015-12-10T13:00:00Z,30.4178,-88.4054,0.97,24.6,1111122 
NERRS,ioos:station:NOAA.NERRS:gndbhwq:1,2015-12-10T14:00:00Z,30.4178,-88.4054,1.0,24.6,1111122 
NERRS,ioos:station:NOAA.NERRS:gndbhwq:1,2015-12-10T15:00:00Z,30.4178,-88.4054,1.06,24.7,1111122 
NERRS,ioos:station:NOAA.NERRS:gndbhwq:1,2015-12-10T16:00:00Z,30.4178,-88.4054,1.07,24.6,1111122 
NERRS,ioos:station:NOAA.NERRS:gndbhwq:1,2015-12-10T17:00:00Z,30.4178,-88.4054,1.16,24.6,1111122 
NERRS,ioos:station:NOAA.NERRS:gndbhwq:1,2015-12-10T18:00:00Z,30.4178,-88.4054,1.19,24.6,1111122 
NERRS,ioos:station:NOAA.NERRS:gndbhwq:1,2015-12-10T19:00:00Z,30.4178,-88.4054,1.23,24.5,1111122 
NERRS,ioos:station:NOAA.NERRS:gndbhwq:1,2015-12-10T20:00:00Z,30.4178,-88.4054,1.27,24.3,1111122 
NERRS,ioos:station:NOAA.NERRS:gndbhwq:1,2015-12-10T21:00:00Z,30.4178,-88.4054,1.31,24.1,1111122 
NERRS,ioos:station:NOAA.NERRS:gndbhwq:1,2015-12-10T22:00:00Z,30.4178,-88.4054,1.38,24.1,1111122 
NERRS,ioos:station:NOAA.NERRS:gndbhwq:1,2015-12-10T23:00:00Z,30.4178,-88.4054,1.44,24.1,1111122 
NERRS,ioos:station:NOAA.NERRS:gndbhwq:1,2015-12-11T00:00:00Z,30.4178,-88.4054,1.5,24.1,1111122 
NERRS,ioos:station:NOAA.NERRS:gndbhwq:1,2015-12-11T01:00:00Z,30.4178,-88.4054,1.56,24.1,1111122 
NERRS,ioos:station:NOAA.NERRS:gndbhwq:1,2015-12-11T02:00:00Z,30.4178,-88.4054,1.62,24.2,1111122 
NERRS,ioos:station:NOAA.NERRS:gndbhwq:1,2015-12-11T03:00:00Z,30.4178,-88.4054,1.66,24.5,1111122 
NERRS,ioos:station:NOAA.NERRS:gndbhwq:1,2015-12-11T04:00:00Z,30.4178,-88.4054,1.65,24.2,1111122 
NERRS,ioos:station:NOAA.NERRS:gndbhwq:1,2015-12-11T05:00:00Z,30.4178,-88.4054,1.59,24.0,1111122 
NERRS,ioos:station:NOAA.NERRS:gndbhwq:1,2015-12-11T06:00:00Z,30.4178,-88.4054,1.51,24.0,1111122 
NERRS,ioos:station:NOAA.NERRS:gndbhwq:1,2015-12-11T07:00:00Z,30.4178,-88.4054,1.44,24.0,1111122 
NERRS,ioos:station:NOAA.NERRS:gndbhwq:1,2015-12-11T08:00:00Z,30.4178,-88.4054,1.36,23.9,1111122 
NERRS,ioos:station:NOAA.NERRS:gndbhwq:1,2015-12-11T09:00:00Z,30.4178,-88.4054,1.26,23.8,1111122 
NERRS,ioos:station:NOAA.NERRS:gndbhwq:1,2015-12-11T10:00:00Z,30.4178,-88.4054,1.17,23.7,1111122 
NERRS,ioos:station:NOAA.NERRS:gndbhwq:1,2015-12-11T11:00:00Z,30.4178,-88.4054,1.1,23.7,1111122 
NERRS,ioos:station:NOAA.NERRS:gndbhwq:1,2015-12-11T12:00:00Z,30.4178,-88.4054,1.05,23.7,1111122 
NERRS,ioos:station:NOAA.NERRS:gndbhwq:1,2015-12-11T13:00:00Z,30.4178,-88.4054,0.98,23.6,1111122 
NERRS,ioos:station:NOAA.NERRS:gndbhwq:1,2015-12-11T14:00:00Z,30.4178,-88.4054,1.04,23.5,1111122 
NERRS,ioos:station:NOAA.NERRS:gndbhwq:1,2015-12-11T15:00:00Z,30.4178,-88.4054,1.1,23.5,1111122 
NERRS,ioos:station:NOAA.NERRS:gndbhwq:1,2015-12-11T16:00:00Z,30.4178,-88.4054,1.1,23.4,1111122 
NERRS,ioos:station:NOAA.NERRS:gndbhwq:1,2015-12-11T17:00:00Z,30.4178,-88.4054,1.2,23.4,1111122 
NERRS,ioos:station:NOAA.NERRS:gndbhwq:1,2015-12-11T18:00:00Z,30.4178,-88.4054,1.25,23.4,1111122 
NERRS,ioos:station:NOAA.NERRS:gndbhwq:1,2015-12-11T19:00:00Z,30.4178,-88.4054,1.28,23.1,1111122 
NERRS,ioos:station:NOAA.NERRS:gndbhwq:1,2015-12-11T20:00:00Z,30.4178,-88.4054,1.29,22.9,1111122 
NERRS,ioos:station:NOAA.NERRS:gndbhwq:1,2015-12-11T21:00:00Z,30.4178,-88.4054,1.36,22.9,1111122 
NERRS,ioos:station:NOAA.NERRS:gndbhwq:1,2015-12-11T22:00:00Z,30.4178,-88.4054,1.42,23.2,1111122 
NERRS,ioos:station:NOAA.NERRS:gndbhwq:1,2015-12-11T23:00:00Z,30.4178,-88.4054,1.46,23.3,1111122 
NERRS,ioos:station:NOAA.NERRS:gndbhwq:1,2015-12-12T00:00:00Z,30.4178,-88.4054,1.52,23.2,1111122 
NERRS,ioos:station:NOAA.NERRS:gndbhwq:1,2015-12-12T01:00:00Z,30.4178,-88.4054,1.57,23.2,1111122 
NERRS,ioos:station:NOAA.NERRS:gndbhwq:1,2015-12-12T02:00:00Z,30.4178,-88.4054,1.63,23.1,1111122 
NERRS,ioos:station:NOAA.NERRS:gndbhwq:1,2015-12-12T03:00:00Z,30.4178,-88.4054,1.7,23.1,1111122 
NERRS,ioos:station:NOAA.NERRS:gndbhwq:1,2015-12-12T04:00:00Z,30.4178,-88.4054,1.7,23.2,1111122 
NERRS,ioos:station:NOAA.NERRS:gndbhwq:1,2015-12-12T05:00:00Z,30.4178,-88.4054,1.65,23.1,1111122 
NERRS,ioos:station:NOAA.NERRS:gndbhwq:1,2015-12-12T06:00:00Z,30.4178,-88.4054,1.58,23.1,1111122 
NERRS,ioos:station:NOAA.NERRS:gndbhwq:1,2015-12-12T07:00:00Z,30.4178,-88.4054,1.52,23.0,1111122 
NERRS,ioos:station:NOAA.NERRS:gndbhwq:1,2015-12-12T08:00:00Z,30.4178,-88.4054,1.45,23.0,1111122 
NERRS,ioos:station:NOAA.NERRS:gndbhwq:1,2015-12-12T09:00:00Z,30.4178,-88.4054,1.33,23.0,1111122 
NERRS,ioos:station:NOAA.NERRS:gndbhwq:1,2015-12-12T10:00:00Z,30.4178,-88.4054,1.25,23.0,1111122 
NERRS,ioos:station:NOAA.NERRS:gndbhwq:1,2015-12-12T11:00:00Z,30.4178,-88.4054,1.16,22.9,1111122 
NERRS,ioos:station:NOAA.NERRS:gndbhwq:1,2015-12-12T12:00:00Z,30.4178,-88.4054,1.09,22.9,1111122 
NERRS,ioos:station:NOAA.NERRS:gndbhwq:1,2015-12-12T13:00:00Z,30.4178,-88.4054,1.07,22.8,1111122 
NERRS,ioos:station:NOAA.NERRS:gndbhwq:1,2015-12-12T14:00:00Z,30.4178,-88.4054,1.07,22.7,1111122 
NERRS,ioos:station:NOAA.NERRS:gndbhwq:1,2015-12-12T15:00:00Z,30.4178,-88.4054,1.14,22.7,1111122 
NERRS,ioos:station:NOAA.NERRS:gndbhwq:1,2015-12-12T16:00:00Z,30.4178,-88.4054,1.14,22.7,1111122 
NERRS,ioos:station:NOAA.NERRS:gndbhwq:1,2015-12-12T17:00:00Z,30.4178,-88.4054,1.2,22.6,1111122 
NERRS,ioos:station:NOAA.NERRS:gndbhwq:1,2015-12-12T18:00:00Z,30.4178,-88.4054,1.21,22.4,1111122 
NERRS,ioos:station:NOAA.NERRS:gndbhwq:1,2015-12-12T19:00:00Z,30.4178,-88.4054,1.25,22.0,1111122 
NERRS,ioos:station:NOAA.NERRS:gndbhwq:1,2015-12-12T20:00:00Z,30.4178,-88.4054,1.31,22.1,1111122 
NERRS,ioos:station:NOAA.NERRS:gndbhwq:1,2015-12-12T21:00:00Z,30.4178,-88.4054,1.33,22.3,1111122 
NERRS,ioos:station:NOAA.NERRS:gndbhwq:1,2015-12-12T22:00:00Z,30.4178,-88.4054,1.35,22.4,1111122 
NERRS,ioos:station:NOAA.NERRS:gndbhwq:1,2015-12-12T23:00:00Z,30.4178,-88.4054,1.43,22.3,1111122 
NERRS,ioos:station:NOAA.NERRS:gndbhwq:1,2015-12-13T00:00:00Z,30.4178,-88.4054,1.48,22.4,1111122 
NERRS,ioos:station:NOAA.NERRS:gndbhwq:1,2015-12-13T01:00:00Z,30.4178,-88.4054,1.52,22.5,1111122 
NERRS,ioos:station:NOAA.NERRS:gndbhwq:1,2015-12-13T02:00:00Z,30.4178,-88.4054,1.6,22.5,1111122 
NERRS,ioos:station:NOAA.NERRS:gndbhwq:1,2015-12-13T03:00:00Z,30.4178,-88.4054,1.69,22.3,1111122 
NERRS,ioos:station:NOAA.NERRS:gndbhwq:1,2015-12-13T04:00:00Z,30.4178,-88.4054,1.71,22.5,1111122 
NERRS,ioos:station:NOAA.NERRS:gndbhwq:1,2015-12-13T05:00:00Z,30.4178,-88.4054,1.72,22.4,1111122 
NERRS,ioos:station:NOAA.NERRS:gndbhwq:1,2015-12-13T06:00:00Z,30.4178,-88.4054,1.69,22.4,1111122 
NERRS,ioos:station:NOAA.NERRS:gndbhwq:1,2015-12-13T07:00:00Z,30.4178,-88.4054,1.65,22.3,1111122 
NERRS,ioos:station:NOAA.NERRS:gndbhwq:1,2015-12-13T08:00:00Z,30.4178,-88.4054,1.57,22.3,1111122 
NERRS,ioos:station:NOAA.NERRS:gndbhwq:1,2015-12-13T09:00:00Z,30.4178,-88.4054,1.56,22.1,1111122 
NERRS,ioos:station:NOAA.NERRS:gndbhwq:1,2015-12-13T10:00:00Z,30.4178,-88.4054,1.43,22.2,1111122 
NERRS,ioos:station:NOAA.NERRS:gndbhwq:1,2015-12-13T11:00:00Z,30.4178,-88.4054,1.32,22.0,1111122 
NERRS,ioos:station:NOAA.NERRS:gndbhwq:1,2015-12-13T12:00:00Z,30.4178,-88.4054,1.24,22.0,1111122 
NERRS,ioos:station:NOAA.NERRS:gndbhwq:1,2015-12-13T13:00:00Z,30.4178,-88.4054,1.24,21.8,1111122 
NERRS,ioos:station:NOAA.NERRS:gndbhwq:1,2015-12-13T14:00:00Z,30.4178,-88.4054,1.19,22.0,1111122 
NERRS,ioos:station:NOAA.NERRS:gndbhwq:1,2015-12-13T15:00:00Z,30.4178,-88.4054,1.21,21.9,1111122 
NERRS,ioos:station:NOAA.NERRS:gndbhwq:1,2015-12-13T16:00:00Z,30.4178,-88.4054,1.26,21.9,1111122 
NERRS,ioos:station:NOAA.NERRS:gndbhwq:1,2015-12-13T17:00:00Z,30.4178,-88.4054,1.33,21.5,1111122 
NERRS,ioos:station:NOAA.NERRS:gndbhwq:1,2015-12-13T18:00:00Z,30.4178,-88.4054,1.32,20.6,1111122 
NERRS,ioos:station:NOAA.NERRS:gndbhwq:1,2015-12-13T19:00:00Z,30.4178,-88.4054,1.38,20.6,1111122 